Showing default

PVCC, 58025

Orbit data source: Space-Track

PVCC, 58025 is a payload satellite owned by ESA (BE) in SSO that was launched on Mon, 09 Oct 2023 UTC via a VEGA launch vehicle from the French Guiana (FRGUI). Payload-class satellites include a variety of spacecraft equipped with specific instruments for various scientific and technological missions. These include communications satellites like Starlink; space stations such as the ISS; scientific satellites like the Hubble; Earth observation satellites from companies like Planet Labs, Umbra, and HawkEye 360; GPS; miniature CubeSats for education and research; and military/defense satellites.

Loading next visibility...
Identifier
58025, 2023-155K
Orbit
SSO
Country
Flag of BEBE / BEL
Related business
Manufacturer
Aerospacelab
Mission
Operational Civil Imaging
Bus & Motor
CUBESAT 12U, Unknown motor
Mass
~20 kg wet, ~20 kg dry
Launch date (UTC)
2023-10-09 (2 years ago)
Launch vehicle
VEGA
Launch site
French Guiana (FRGUI)
Object type
Payload
Rocket body
Debris
Shape & HBR
Box + 4 Pan, 0.4 m
Radar Cross Section
0.150 m², Medium (>0.1 m² and < 1m²)

Expand to show TLE details & history
Last TLE update: 9 hours ago

TLE from 9 hours ago
0 PVCC
1 58025U 23155K   25307.94437082  .00008783  00000-0  51096-3 0  9990
2 58025  97.5971  20.3618 0004755 173.3872 186.7422 15.12285838113897
Epoch: 2025-11-03T22:39Z
TLE epoch observation values (Epoch: 2025-11-03T22:39:53.638Z)
Latitude
-0.00005°
Longitude
-3.05017°
Altitude
535.568 km
Speed
7.593 km/s
True Right ascension
01h 21m 26s
True Declination
0° 00' 00"
Sunlit
Object was in full shadow at epoch
Visualization orbit readout
Latitude
Unknown
Longitude
Unknown
Altitude
Unknown
Speed
Unknown
Apparent Right ascension
Unknown
Apparent Declination
Unknown
Sunlit
N/A
Visualization observer readout
Local Sidereal Time
03:53:13
Azimuth
Unknown
Elevation
Unknown
Doppler factor
Unknown
Orbital elements
Apogee altitude
529.498 km
Perigee altitude
522.932 km
Semi-major axis
6,904.352 km
Eccentricity
0.00048
Inclination
97.5971°
RAAN
20.3618°
Arg. of periapsis
173.3872°
True anomaly
186.73581°
Mean anomaly
186.7422°
Eccentric anomaly
186.739°
Mean motion
3.7832 °/min
Orbital period
95.16 mins
BSTAR
0.00051096
Loading maneuver chart data...
Computing Atmospheric mass density...
Loading historical data...
Loading historical data...
Loading historical data...
Loading historical data...
Loading historical data...
Loading historical data...
Loading historical data...

Documentation

Showing up to 5 results
|